Location: Home
(42.5358°N, 72.7383°W)
Time: 22:00:17
(UTC-05:00)

Vanguard 1 Rocket - Pass Details

Date: 04 December 2021
Orbit: 651 x 4225 km, 34.3° (Epoch: 26 January)

Event Time Altitude Azimuth Distance (km) Brightness Sun altitude
Exits shadow 03:25:15 56° 203° (SSW) 2,785 9.5 -39.6°
Maximum altitude 03:27:46 62° 168° (SSE) 2,895 9.7 -39.1°
Drops below altitude 10° 03:49:07 10° 95° (E) 7,083 12.7 -35.2°
Sets 03:55:24 0° 93° (E) 8,356 13.4 -34.1°
